THOR ABLESTAR DEB, 544

Orbit data source: Space-Track

THOR ABLESTAR DEB, 544 is space debris in LEO originally from a launch on Thu, 29 Jun 1961 UTC launched from the Air Force Eastern Test Range (AFETR). Debris objects in space refer to the collection of defunct objects orbiting the Earth. Examples of debris include non-operational satellites, rocket bodies, and fragments generated from explosions, collisions, or faulty payload assembly.

Loading next visibility...
THOR ABLESTAR DEB details
Identifier
544, 1961-015GD
Orbit
LEO
Last TLE update14 hours ago
Origin
Flag of USUSAF SSD (US)
ManufacturerUnknown
MissionSpacecraft
Bus & MotorUnknown
MassUnknown
Launch date (UTC)
1961-06-29 (64 years ago)
Launch vehicleUnknown
Launch site
Air Force Eastern Test Range (AFETR)
Object type
Payload
Rocket body
Debris
Shape & HBRUnknown
Radar Cross SectionSmall (<0.1 m²)

Expand to show TLE details & history

TLE from 14 hours ago
0 THOR ABLESTAR DEB
1 00544U 61015GD  25014.94374182  .00000146  00000-0  27522-3 0  9998
2 00544  66.8757 329.7470 0191208 252.8994 167.9636 13.55813894131343
Epoch: 2025-01-14T22:38Z
Definitive object data (Epoch: 2025-01-14T22:38:59.293Z)
Latitude53.89144°
Longitude-89.01813°
Altitude1,198.013 km
Speed7.192 km/s
True Right ascension00h 21m 29s
True Declination53° 44' 14"
Sunlit
Object was in daylight at TLE epoch
Visualization TLE readout
Latitude56.10529°
Longitude14.74871°
Altitude1,161.791 km
Speed7.228 km/s
Apparent Right ascension04h 16m 03s
Apparent Declination17° 31' 13"
Sunlit
Object is in full shadow
Visualization observer readout
Local Sidereal Time13:45:52
Azimuth320.935° NNW
Elevation-22.75°
Doppler factor1
Orbital elements
Apogee altitude1,191.375 km
Perigee altitude907.336 km
Semi-major axis7,427.493 km
Eccentricity0.0191208
Inclination66.8757°
RAAN329.747°
Arg. of periapsis252.8994°
True anomaly168.41006°
Mean anomaly167.9636°
Eccentric anomaly168.18786°
Mean motion3.39063 °/min
BSTAR0.00027522
Orbital period106.18 mins
Loading maneuver chart data...

THOR ABLESTAR DEB Visibility forecast

Observer location: undefined°, undefined

Span
Click to sort rows by Start time (UTC) header in descending order
Start Az.
Max El. time (UTC)
Max El. Az.
Max El.
End time (UTC)
End Az.
12 mins2025-01-15 21:27:23.701Z171.064° S2025-01-15 21:33:23.701Z107.499° ESE31.939°2025-01-15 21:39:23.701Z45.965° ENE
12 mins2025-01-15 23:17:23.701Z241.715° WSW2025-01-15 23:22:23.701Z303.711° NW35.731°2025-01-15 23:29:23.701Z18.474° NNE
4 mins2025-01-16 01:12:23.701Z317.488° NNW2025-01-16 01:14:23.701Z334.384° NNW12.7°2025-01-16 01:16:23.701Z350.755° N
4 mins2025-01-16 04:59:23.701Z16.656° NNE2025-01-16 05:00:23.701Z25.204° NE12.666°2025-01-16 05:03:23.701Z50.855° ENE
12 mins2025-01-16 06:46:23.701Z343.949° N2025-01-16 06:52:23.701Z57.531° ENE36.26°2025-01-16 06:58:23.701Z125.085° SE
10 mins2025-01-16 08:36:23.701Z308.201° NW2025-01-16 08:41:23.701Z250.825° W29.603°2025-01-16 08:46:23.701Z194.652° SSW
|